Regional Weather Roundup
Issued by NWS

Home | Current Version | Previous Version | Text Only | Print | Product List | Glossary Off
Versions: 1 2 3 4 5 6 7 8 9 10 11 12 13 14 15 16 17 18 19 20 21 22 23 24 25 26 27 28 29 30 31 32 33 34 35 36 37 38 39 40 41 42 43 44 45 46 47 48 49 50

650
ASUS45 KSLC 281710
RWRUT

UTAH REGIONAL WEATHER ROUNDUP
NATIONAL WEATHER SERVICE SALT LAKE CITY UT
1100 AM MDT FRI APR 28 2017

UTZ001>011-023>025-281800-

NORTHERN UTAH

CITY           SKY/WX    TMP DP  RH WIND       PRES   REMARKS
BRIGHAM CITY   CLOUDY    39  29  67 N14       29.92S WCI  31
HILL AFB       FLURRIES  36  28  75 N5        29.91R WCI  32
LOGAN          LGT SNOW  35  32  88 CALM      29.91S VSB 1
OGDEN          CLOUDY    37  30  75 NW9       29.91R WCI  30
SALT LAKE CITY LGT SNOW  38  34  85 NW14      29.92R FOG     WCI  30
TOOELE VALLEY  MIX PCPN  34  32  93 S6        29.94R WCI  29
WENDOVER       PTSUNNY   43  19  38 N22       29.96R
HEBER CITY     CLOUDY    37  21  52 S6        29.83S WCI  33
WEST JORDAN    CLOUDY    37  37 100 N12G17    29.92R WCI  30

$$

UTZ011>015-024>027-281800-

CENTRAL/NORTHEAST UTAH

CITY           SKY/WX    TMP DP  RH WIND       PRES   REMARKS
PROVO AIRPORT  MOSUNNY   41  26  55 NW17      29.90S
MOAB/CANYONLAN PTSUNNY   47  13  25 W17G24    29.76F
DELTA          MOSUNNY   41  23  48 NW15      29.92F
PRICE          MOSUNNY   41  16  36 NW18G29   29.78R
RICHFIELD      CLOUDY    39  21  48 N8        29.92R WCI  34
ROOSEVELT      MOSUNNY   43  19  39 NE3       29.80R
VERNAL         CLOUDY    42  18  37 VRB5      29.77S

$$

UTZ013>016-019>022-027-281800-

SOUTHERN UTAH

CITY           SKY/WX    TMP DP  RH WIND       PRES   REMARKS
BRYCE CANYON   CLOUDY    32   9  38 NW18      29.83S WCI  20
CEDAR CITY     PTSUNNY   43  17  35 N13G21    29.87S
MILFORD        PTSUNNY   45  23  42 NE18      29.90S
HANKSVILLE     MOSUNNY   46  12  25 W13G18    29.82F
KANAB          MOSUNNY   52  14  22 NW17      29.88F
BLANDING       PTSUNNY   44  15  30 W13       29.82S

$$

REGIONAL REPORTS     COLORADO/ARIZONA

CITY           SKY/WX    TMP DP  RH WIND       PRES   REMARKS
CRAIG, CO      CLOUDY    39  20  46 VRB3      29.75S
GRAND JUNCTION SUNNY     47  18  31 W9        29.75S
RIFLE, CO      PTSUNNY   44  22  41 NW7       29.74S
MONTROSE, CO   PTSUNNY   43  13  29 VRB3      29.75F
CORTEZ, CO     CLOUDY    44  18  35 W6        29.75S
COLORADO CITY    N/A     52  14  22 NW16G25   29.88F
PAGE, AZ       SUNNY     52   9  17 NW12G18   29.80F
GRAND CANYON   SUNNY     46  15  28 W13G25    29.81F
KINGMAN, AZ    SUNNY     61  12  14 N20G32    29.86R
FLAGSTAFF, AZ  PTSUNNY   45   9  23 NW10G20   29.82S

$$

REGIONAL REPORTS    NEVADA/IDAHO/WYOMING

CITY           SKY/WX    TMP DP  RH WIND       PRES   REMARKS
LAS VEGAS, NV  MOSUNNY   64   7  10 N31G38    29.86F
ELY, NY        CLOUDY    35  17  47 NW12      29.95S WCI  27
ELKO, NV       CLOUDY    39  20  46 NW16G24   30.02S WCI  30
POCATELLO, ID  CLOUDY    37  32  82 SW16      29.96S WCI  28
BURLEY, ID     MOSUNNY   40  30  67 W16       29.98R WCI  31
EVANSTON, WY   LGT SNOW  27  24  89 W13       29.81S VSB 1   WCI  16
ROCK SPRINGS,  LGT SNOW  30  25  81 SW18      29.76R VSB 3/4 WCI  18
KEMMERER, WY     N/A     32  25  74 W20       29.77  WCI  20

$$




USA.gov is the U.S. government's official web portal to all federal, state and local government web resources and services.